Theta_e
300 300 300 300 300 300 300 300 301 300 299 290 289 294 294 294 288 302 307 312 310 302 294 297 294 293 294 298 296 295 292 290 291 291 292 291 293 291 291 291 291 291 292 290 288 290 286 288 287 285 284 289 291 287 289 290 289 290 284 288 288 291 279 278 284 286 285 289 291 289 287 289 287 287 286 285 285 287 285 284 284 282 282 281 281 278 282
300 300 300 300 300 299 299 300 299 300 299 289 290 292 292 292 292 296 305 309 309 299 288 289 291 293 296 296 295 296 293 292 291 291 291 292 290 290 289 289 293 291 291 289 288 287 284 287 289 286 287 285 287 286 288 290 290 290 285 288 288 283 283 284 279 281 282 283 285 285 283 284 282 283 284 285 286 285 284 283 282 279 281 282 279 274 281
300 300 300 299 299 299 299 299 299 299 300 295 291 288 290 287 287 291 295 303 303 293 294 292 291 292 293 294 292 294 295 295 296 294 291 294 292 291 289 293 290 289 288 287 288 288 288 285 289 287 285 285 285 284 286 288 287 288 289 292 289 285 283 283 277 275 273 273 274 273 273 277 280 280 281 283 284 284 282 279 281 278 282 283 279 279 286
300 300 300 300 299 299 299 299 299 299 300 299 288 286 286 282 275 281 285 292 297 295 297 295 291 286 289 289 292 294 292 293 290 293 293 296 291 292 291 288 290 288 288 286 288 288 288 286 283 283 282 282 284 283 284 285 285 290 292 287 287 284 284 285 284 281 279 281 283 284 285 283 282 281 283 284 284 283 284 284 281 278 282 281 282 283 284
300 300 300 300 300 299 300 298 298 299 299 299 288 285 285 281 279 278 273 284 287 290 294 292 294 289 293 287 290 288 290 290 290 293 288 289 291 290 291 288 287 285 286 285 286 287 286 286 287 287 286 284 284 283 282 283 286 291 288 287 281 282 282 284 285 284 284 286 285 287 286 283 284 283 283 285 284 285 283 281 278 285 281 276 284 285 283
301 300 300 300 300 299 300 299 299 299 301 301 287 282 286 277 277 282 286 284 276 281 287 291 289 291 291 288 292 288 286 287 285 287 289 288 288 287 286 289 289 288 287 285 283 285 286 285 283 285 284 285 285 286 286 284 285 285 281 283 283 281 280 284 284 281 284 284 284 283 282 282 283 283 284 283 284 283 281 282 284 284 279 277 283 284 282
301 301 301 301 301 300 300 299 299 299 299 297 281 278 278 281 281 281 284 280 281 282 284 284 287 286 289 287 290 288 288 286 287 285 284 286 285 289 285 288 287 287 287 285 283 285 281 281 284 284 282 280 280 279 282 284 282 281 279 280 283 281 278 282 281 280 282 282 281 281 281 281 281 281 281 282 282 282 282 282 282 282 281 282 282 283 282
301 301 301 301 301 301 300 300 299 300 300 291 282 281 279 279 281 278 283 282 282 282 281 280 281 283 288 286 287 288 287 287 288 287 286 284 285 287 287 287 287 282 282 285 285 286 284 282 282 280 277 275 275 273 279 277 277 279 277 280 280 284 276 285 279 277 277 280 281 280 279 279 277 279 280 281 281 281 281 281 281 281 280 282 281 281 281
301 301 301 301 301 301 301 300 300 300 301 286 282 280 282 284 285 285 280 278 279 279 280 280 280 279 281 283 286 288 287 287 286 285 287 286 284 283 280 281 281 281 283 284 284 284 281 282 280 280 279 277 280 278 278 282 276 279 277 280 280 282 277 282 278 274 274 279 278 278 278 277 276 276 278 278 278 277 279 278 281 279 278 279 279 277 278
300 300 300 300 301 301 301 300 300 300 300 285 281 281 283 282 280 284 282 276 281 278 279 276 278 275 278 281 282 284 282 281 285 284 285 284 285 283 283 282 282 282 283 281 282 283 284 283 284 285 284 286 283 283 283 283 281 279 278 282 279 280 277 275 275 272 272 277 277 275 273 272 270 271 275 277 277 278 279 281 281 281 280 277 275 276 277
300 299 299 300 300 300 300 300 300 301 294 286 283 281 281 282 281 281 280 275 276 277 277 275 276 277 275 277 276 278 279 280 281 281 282 283 284 285 284 282 281 280 280 284 285 285 285 287 286 286 285 284 283 283 283 283 283 281 280 277 277 280 278 275 277 270 270 274 270 271 268 263 265 275 277 277 276 276 275 276 278 278 278 275 277 276 277
301 300 300 300 300 300 300 300 301 301 298 291 288 283 283 282 281 279 278 274 274 276 275 274 276 276 276 276 276 276 276 278 279 283 280 282 281 282 282 281 283 277 285 284 285 285 286 286 284 282 281 280 281 282 282 280 280 283 282 279 276 276 276 273 270 269 268 266 264 267 262 264 273 275 276 276 276 277 277 276 275 276 277 278 278 278 277
302 302 302 302 302 301 300 300 301 300 301 292 291 286 285 285 284 282 280 276 269 275 274 275 276 276 276 276 275 276 277 277 278 279 280 280 279 280 282 282 280 282 286 283 285 283 279 277 278 278 277 278 278 280 280 279 279 280 280 280 277 273 273 267 265 266 264 268 268 261 260 270 272 276 277 277 276 275 273 274 276 274 275 277 276 279 278
302 302 302 302 302 302 302 301 301 301 301 296 291 289 287 286 284 280 279 277 276 277 276 275 276 275 276 276 276 276 277 276 276 276 275 277 277 277 279 282 282 284 283 284 281 280 275 273 266 271 273 271 270 271 272 276 277 277 277 277 279 276 272 268 266 273 264 266 265 266 271 271 274 273 275 274 273 272 270 265 273 275 272 276 276 279 279
302 301 302 302 301 301 302 301 301 301 301 300 293 290 288 289 288 283 281 280 274 277 277 271 274 275 276 275 276 274 274 274 274 274 275 276 275 278 279 280 279 279 280 278 275 275 270 259 259 262 258 259 260 261 266 264 271 274 274 275 277 277 273 274 269 265 273 265 266 267 265 262 265 271 274 276 275 275 277 274 271 275 271 274 276 278 279
302 301 301 301 301 301 301 301 301 301 300 301 294 291 290 291 289 287 283 279 278 272 276 279 278 275 275 275 276 275 273 274 274 271 271 273 273 276 278 277 276 279 279 277 275 266 259 263 261 257 258 255 259 259 258 265 264 266 272 274 275 276 277 274 272 270 273 270 267 266 265 267 273 271 272 272 274 275 276 272 267 272 267 269 275 277 277
301 301 301 301 301 302 301 301 301 301 301 300 293 292 290 292 289 288 285 282 280 275 280 279 280 278 274 275 277 275 276 274 274 269 265 270 275 273 272 275 277 279 278 274 273 269 265 260 258 254 256 257 258 262 259 258 257 262 268 268 269 272 274 274 271 270 270 269 268 265 270 264 269 269 270 271 274 277 271 263 265 270 271 272 273 274 274
301 301 301 301 301 301 301 302 301 301 301 302 296 291 290 292 292 287 287 284 281 280 283 281 279 276 276 276 274 277 276 272 273 272 272 269 268 271 271 271 272 276 279 271 269 265 266 262 263 264 260 266 265 265 259 262 254 259 261 267 264 265 262 266 268 270 270 272 268 270 268 275 273 274 275 273 275 272 261 262 265 271 270 272 273 274 275
301 301 301 301 301 301 301 301 301 301 301 301 297 293 292 292 292 290 288 285 283 278 285 285 285 280 280 280 277 277 277 277 275 271 261 266 266 267 271 269 275 268 273 270 266 265 267 264 260 252 256 258 263 259 263 261 262 264 266 266 263 261 259 261 264 265 268 267 265 266 267 271 273 274 275 275 271 260 263 270 272 270 274 272 274 274 276
301 301 301 301 301 301 301 301 301 301 300 301 298 291 293 294 293 291 287 283 285 282 285 283 284 281 282 280 277 276 275 276 276 274 266 268 268 272 272 269 272 264 265 270 268 267 263 264 266 263 259 260 260 266 257 261 267 265 267 264 265 264 262 260 261 263 263 264 263 264 261 269 268 271 271 273 265 266 271 271 273 274 273 272 272 275 275
300 300 300 300 300 300 300 300 301 300 301 301 299 292 290 294 294 292 292 289 285 281 282 288 285 285 284 283 284 283 281 278 278 276 277 277 277 273 265 263 269 263 264 268 266 266 264 258 258 262 264 265 265 263 262 254 259 267 270 267 265 268 263 261 264 268 263 262 261 261 267 273 273 270 264 267 272 274 276 275 274 276 275 273 274 273 275
300 300 300 300 300 300 300 300 300 300 300 300 299 292 289 293 293 293 291 289 286 283 284 286 286 286 288 288 288 287 285 284 284 284 280 278 279 278 272 265 262 260 262 266 262 260 260 257 259 257 260 261 260 263 258 257 262 262 263 266 262 270 269 269 267 268 265 261 265 270 271 272 274 273 274 276 277 277 276 275 274 274 274 274 273 275 275
299 300 300 299 300 299 299 299 300 299 299 300 299 291 288 291 291 293 289 285 287 287 287 286 287 286 288 288 287 288 288 289 287 285 285 281 276 278 276 273 271 273 270 275 272 269 268 263 266 264 258 260 267 262 258 265 259 260 263 270 270 272 273 272 269 269 273 273 274 276 272 273 276 277 277 277 277 278 276 274 274 274 275 275 274 274 275
299 299 300 300 299 300 300 299 299 299 300 300 298 290 288 291 289 288 286 286 283 281 284 285 283 280 284 284 288 288 288 286 287 287 288 286 277 277 279 279 279 274 271 275 278 276 272 270 272 271 269 271 267 266 266 263 264 263 264 267 268 272 272 270 269 273 269 265 275 273 274 275 275 275 277 277 277 276 275 274 274 275 275 274 274 274 274
299 300 300 299 299 299 299 300 299 299 299 300 298 296 291 287 289 289 285 279 281 280 274 280 282 286 289 290 290 288 288 289 290 288 287 286 283 279 278 280 282 279 277 278 279 274 271 271 269 268 269 273 272 267 272 268 268 272 265 269 267 268 274 271 272 271 269 269 274 275 275 275 276 276 276 276 277 277 275 275 275 274 274 273 274 272 272
300 299 299 299 299 298 299 299 299 299 299 299 297 290 289 289 291 291 289 287 285 282 276 276 281 284 285 286 285 287 289 289 288 287 286 286 286 285 284 281 280 282 280 280 279 277 273 269 272 272 271 271 277 271 271 274 271 274 270 269 274 273 273 261 269 270 272 274 275 275 276 275 276 277 277 277 277 276 276 276 273 271 270 270 270 271 271
299 299 299 299 299 299 299 299 298 299 299 299 296 291 290 289 290 289 287 286 282 277 280 276 280 279 280 283 285 283 285 287 287 286 285 286 285 286 285 283 281 281 281 280 279 278 270 273 273 271 274 273 277 272 274 270 273 271 271 275 276 273 270 273 269 268 268 269 272 274 266 268 274 275 275 275 274 274 273 271 270 268 268 267 267 268 268
299 299 298 298 299 299 299 298 298 299 299 298 296 291 288 288 290 291 292 289 285 278 278 275 274 277 281 275 281 284 286 287 286 285 285 285 285 284 282 283 283 281 280 279 274 274 273 271 271 276 276 273 272 271 277 277 276 272 273 274 277 273 274 273 270 269 269 274 275 276 275 274 276 276 276 271 270 271 271 270 268 266 266 266 265 265 266
298 299 299 299 299 298 298 298 299 299 299 297 286 286 286 288 291 292 292 292 288 284 282 283 280 277 276 279 282 283 284 286 285 285 284 284 284 283 283 283 282 282 282 281 279 278 276 275 278 275 273 277 272 271 274 269 270 268 272 276 277 277 278 276 276 275 276 277 277 277 275 274 276 277 271 266 266 267 267 266 266 266 265 265 265 265 264
298 297 299 299 298 298 297 298 298 298 298 289 286 285 282 284 290 290 292 292 289 285 280 277 274 277 279 277 276 279 281 283 284 284 283 282 282 282 282 282 282 284 282 280 280 275 278 277 279 280 280 280 274 272 270 271 269 271 276 277 277 277 277 278 278 276 275 278 277 277 277 276 273 269 265 265 265 266 265 265 265 265 265 265 263 264 264
298 297 298 298 298 298 299 298 297 298 297 286 286 279 278 276 284 291 293 292 291 286 281 280 277 281 277 279 278 279 280 282 282 282 282 282 282 283 284 284 283 283 279 280 279 279 280 276 277 278 281 280 278 273 271 271 269 271 275 276 277 276 276 277 278 278 278 278 277 273 269 271 270 267 266 263 264 264 264 264 265 264 264 263 262 262 262
298 297 298 298 298 298 298 298 298 298 291 285 284 282 283 282 284 289 293 292 290 284 280 275 275 275 275 277 276 278 281 282 282 281 281 283 280 283 282 282 280 283 282 279 280 279 278 280 278 278 277 281 280 271 273 271 269 271 276 277 277 277 277 276 277 275 267 266 268 271 272 273 264 267 269 264 263 264 263 263 263 262 262 261 261 261 260
297 297 298 298 297 297 297 298 299 297 289 290 294 294 293 294 294 293 294 290 287 283 283 278 273 274 271 270 271 271 278 277 276 280 277 283 279 282 279 282 282 281 285 280 277 275 280 279 279 276 279 281 275 273 272 271 272 276 277 278 278 277 277 272 267 264 264 263 267 271 273 271 264 263 263 263 263 262 261 261 260 260 258 256 256 259 259
296 297 296 297 297 297 297 297 298 297 296 288 283 284 289 295 294 294 290 288 285 283 280 275 271 272 271 270 267 270 280 277 277 280 274 279 279 280 278 280 280 277 281 277 279 278 277 278 276 275 277 276 278 271 268 273 276 276 277 277 278 275 268 266 265 264 262 261 262 262 262 262 262 262 261 261 260 261 260 259 257 256 256 257 257 258 259
296 296 297 296 296 296 297 296 291 290 286 286 285 285 290 296 295 295 291 286 278 277 277 276 276 271 270 268 268 270 275 274 273 277 275 276 282 277 278 274 278 274 276 283 278 277 276 276 278 272 271 275 272 269 272 275 276 277 277 276 274 267 265 266 264 261 260 261 259 260 261 260 261 261 260 259 259 259 257 256 257 256 256 256 257 257 257
295 295 295 296 296 296 292 291 288 285 283 284 284 290 294 295 295 291 288 287 284 277 276 275 276 273 273 269 269 272 279 274 274 275 274 272 272 278 277 276 271 276 281 278 273 277 274 279 274 270 276 270 269 272 274 276 276 276 275 276 270 266 266 266 263 257 258 258 257 259 259 259 259 259 258 258 258 256 256 255 256 255 254 255 255 256 255
296 295 296 294 291 287 285 285 287 286 285 288 290 294 295 293 288 288 285 284 283 283 277 273 271 272 274 270 270 271 277 267 275 270 269 268 270 271 274 273 271 277 274 272 274 273 277 281 275 272 272 269 272 277 277 277 276 275 274 265 260 260 259 258 257 257 255 255 255 258 258 257 256 256 256 256 256 255 253 252 254 253 252 252 253 253 253
295 295 290 285 283 279 279 283 280 284 294 294 293 286 283 285 278 281 281 278 281 281 277 277 274 272 270 271 268 277 276 272 276 271 267 269 270 267 274 273 273 276 267 270 273 279 273 271 271 270 272 276 274 267 268 265 262 260 260 259 259 258 257 256 255 256 257 259 258 257 256 256 255 255 255 253 254 253 254 254 253 253 253 253 253 253 253
292 288 285 284 281 279 280 280 288 294 290 288 285 280 277 279 277 274 274 277 278 273 278 276 274 277 273 270 272 280 276 272 270 271 269 276 271 267 272 267 275 274 268 267 270 279 268 269 270 271 269 273 273 272 261 260 258 258 257 258 258 257 256 256 256 256 258 258 257 255 255 257 256 254 253 253 253 253 253 253 253 252 252 252 252 252 251
285 281 280 279 280 281 285 289 295 289 285 280 278 277 273 277 274 269 275 271 271 273 276 270 278 277 277 274 272 272 280 273 269 269 271 270 275 266 270 266 271 270 265 267 268 273 267 262 264 265 268 272 273 263 256 258 255 255 256 255 255 256 257 255 255 255 254 254 254 254 253 253 253 252 251 251 251 251 251 250 251 251 250 251 251 251 251
282 279 279 280 278 278 284 287 281 278 278 275 274 273 272 269 271 271 273 269 269 266 268 269 274 272 276 277 276 273 279 279 272 271 272 268 275 270 264 265 273 267 265 264 270 265 260 257 257 261 267 271 270 256 254 253 254 252 253 252 253 253 254 254 254 253 252 251 250 250 250 249 249 249 250 249 250 249 250 250 250 250 250 250 250 251 252
283 282 279 280 279 281 284 282 279 277 276 276 271 268 271 270 270 267 270 267 268 266 264 271 270 272 271 276 275 277 273 271 269 274 272 268 275 269 266 263 266 264 262 266 262 259 262 262 260 257 262 262 251 251 252 252 252 251 251 252 253 252 252 252 251 251 251 250 249 250 249 249 248 248 249 250 249 249 250 249 249 249 250 250 251 251 251
288 284 284 279 279 278 279 274 276 274 269 269 268 265 268 264 268 267 267 269 264 263 264 265 267 278 275 273 269 272 274 276 272 271 269 268 275 270 265 264 263 261 265 259 258 258 257 257 254 263 265 255 250 250 250 250 251 251 252 253 253 253 253 252 251 251 250 251 249 249 249 248 249 248 248 248 248 247 248 249 249 249 250 250 249 250 250
284 283 279 276 275 276 277 268 276 269 268 268 267 264 265 263 266 265 262 265 263 263 268 270 270 272 268 272 272 271 271 275 276 266 266 270 267 265 266 261 263 266 263 261 260 258 260 255 260 266 254 249 250 250 251 250 250 250 250 251 251 252 252 251 252 251 250 250 250 249 248 249 248 249 248 247 247 247 248 248 249 249 250 249 249 250 250
279 275 275 273 271 275 271 266 273 268 266 267 271 265 266 265 267 267 268 266 267 268 270 269 271 270 268 266 267 270 274 266 273 270 267 270 265 266 263 263 262 261 262 260 258 256 254 258 262 256 250 250 251 250 250 250 249 249 249 249 249 250 250 250 250 250 249 249 248 248 248 248 248 250 248 248 248 248 248 248 249 249 249 249 249 249 250
276 274 272 268 266 271 269 265 267 263 266 269 267 266 269 270 270 269 266 263 265 262 269 271 271 269 264 263 269 269 267 267 267 268 268 266 264 264 266 264 265 261 260 258 255 257 261 264 268 261 253 252 252 250 249 249 249 247 248 247 248 248 247 247 247 248 249 249 249 249 249 249 249 249 249 249 248 248 248 248 250 249 250 249 248 248 249
276 275 271 270 267 268 269 265 265 266 266 265 266 270 272 270 266 266 262 262 267 267 267 267 270 268 268 263 264 264 263 263 264 268 267 264 264 265 269 264 262 261 259 257 255 254 258 265 255 249 252 251 249 247 247 248 247 247 247 247 247 247 247 247 247 247 249 249 249 249 249 249 249 249 249 249 248 248 248 249 249 249 249 248 248 248 248
272 274 272 266 265 268 266 267 263 260 258 258 257 257 258 261 266 264 261 258 264 268 269 269 267 266 266 266 264 265 264 264 264 266 268 266 267 262 262 261 260 259 257 256 260 264 261 251 249 251 250 250 249 248 247 247 245 245 246 247 246 246 246 246 246 247 247 246 247 247 248 248 247 248 248 248 248 249 248 248 248 247 247 247 247 248 249
273 271 270 268 266 267 265 262 264 268 260 258 258 260 264 268 269 266 260 258 266 269 266 268 265 267 263 267 267 269 265 269 264 265 267 265 262 261 261 257 256 254 257 260 262 255 252 251 249 248 247 247 249 248 247 246 246 246 246 246 246 246 246 247 247 247 247 247 248 248 248 249 249 249 249 248 247 247 249 247 247 247 247 247 248 248 249
270 266 261 261 263 263 261 262 265 264 260 259 260 261 260 265 264 259 260 261 261 265 269 274 274 270 266 266 262 265 264 266 266 267 263 261 262 260 259 255 254 258 259 252 249 249 248 248 248 247 246 246 246 246 245 245 247 247 246 246 246 246 246 247 247 247 248 248 248 247 247 246 247 248 247 247 248 248 248 247 247 246 247 247 248 249 250
267 265 261 260 262 263 265 264 266 264 262 264 263 261 260 262 262 261 262 262 265 268 265 264 267 264 264 264 263 261 263 265 263 264 263 263 260 259 258 259 262 256 253 251 250 250 249 247 246 245 243 243 246 246 246 247 245 245 247 247 246 247 247 247 247 247 247 248 247 248 246 246 247 247 248 247 247 246 245 246 247 247 247 248 249 250 251
266 264 261 259 258 257 260 261 261 261 262 262 263 259 263 261 259 258 262 263 265 267 265 261 263 263 263 263 264 262 262 261 261 260 258 258 255 258 256 258 255 254 253 250 249 247 245 242 241 245 244 245 245 243 243 243 242 241 241 241 242 243 243 245 246 247 246 245 245 244 245 245 245 245 244 244 244 242 243 244 248 248 250 251 252 254 255
Wind_Speed
2 2 1 2 3 4 4 6 8 9 10 3 3 2 1 1 3 1 2 3 9 6 7 5 5 6 3 3 4 1 2 3 1 1 0 0 2 1 1 4 3 3 5 4 5 5 6 5 5 3 3 5 4 5 6 2 1 1 2 2 1 6 0 1 8 4 4 8 7 1 1 4 2 2 3 1 8 11 12 12 5 8 6 8 9 11 3
2 2 3 3 2 2 3 5 6 7 8 1 2 2 1 2 1 3 2 1 7 8 9 10 9 6 4 4 5 1 2 1 2 2 1 3 1 3 2 1 4 4 2 1 5 3 5 4 9 5 3 4 2 6 6 2 2 1 4 1 4 1 4 2 4 3 4 3 4 4 2 3 1 2 4 4 4 4 5 3 0 5 4 9 10 13 2
3 2 2 2 2 3 3 3 5 6 7 3 1 2 1 1 2 2 5 3 1 9 2 4 5 6 8 6 10 9 4 5 8 5 4 1 3 1 2 4 1 2 1 0 0 1 5 4 2 2 1 2 2 7 7 8 3 4 2 4 1 1 2 4 10 8 8 8 10 7 4 2 1 2 2 3 3 6 3 6 1 10 4 11 8 9 5
4 5 3 3 2 1 2 3 3 5 7 7 5 1 2 1 2 2 3 3 1 3 0 2 5 3 6 5 7 8 9 3 1 6 4 6 3 5 3 0 1 1 2 2 3 6 4 7 3 1 2 2 1 2 2 2 1 1 8 5 1 1 2 3 8 12 14 12 8 1 2 2 5 4 3 8 5 3 4 5 9 11 10 11 9 11 12
5 5 5 3 4 1 2 2 3 2 5 6 3 2 2 1 3 2 2 2 3 3 3 2 2 3 3 6 2 9 10 7 4 7 1 2 3 1 4 2 2 3 4 4 6 6 9 6 6 9 11 2 1 3 3 2 7 2 2 3 3 0 5 7 11 12 12 11 11 11 9 13 11 12 13 11 11 10 10 10 14 7 13 16 7 14 13
6 6 5 5 6 3 4 2 1 3 5 6 4 1 1 2 2 3 2 2 4 3 8 1 3 6 2 3 2 4 2 1 3 2 0 0 0 2 3 3 7 7 7 4 4 2 6 4 4 1 1 1 3 1 3 3 4 4 1 1 2 1 5 5 7 10 9 11 11 5 5 4 6 8 9 11 11 12 15 18 16 12 14 20 15 15 17
7 8 8 6 6 5 4 3 4 0 3 6 3 2 3 2 1 0 2 2 2 1 1 3 1 3 3 1 2 7 8 11 6 1 3 1 2 3 7 4 5 7 6 4 3 2 4 3 2 4 2 4 1 1 2 1 4 4 2 2 0 0 4 7 6 8 6 9 9 7 9 9 10 10 11 12 14 17 17 16 14 15 17 16 16 17 20
8 8 8 6 7 7 6 5 4 7 8 6 3 0 1 2 0 1 3 3 2 1 2 1 2 3 4 5 7 8 6 11 6 1 3 6 6 2 9 10 8 3 1 3 8 4 4 5 12 2 5 3 2 2 4 1 2 2 1 1 5 2 6 4 2 5 8 8 9 9 9 10 12 10 10 13 16 19 17 19 19 19 17 16 19 19 18
10 10 10 9 8 7 6 6 5 8 7 3 2 1 1 1 1 1 2 2 2 3 1 1 1 1 2 7 4 5 6 8 3 2 4 2 2 3 2 6 5 2 0 3 5 3 5 4 2 2 3 2 2 2 3 6 1 3 0 0 2 3 4 5 4 7 9 8 11 11 11 13 10 11 16 21 21 17 15 16 14 12 14 15 10 10 7
11 11 10 10 9 8 7 7 6 10 9 4 1 1 1 2 1 2 1 0 1 3 1 0 2 4 3 2 2 1 3 2 2 1 4 5 8 4 5 5 4 3 2 3 4 4 3 3 2 3 4 4 6 2 4 5 2 2 1 2 3 1 2 3 6 10 11 11 7 3 3 9 14 15 20 20 19 18 18 15 13 13 4 10 12 10 2
11 11 11 11 11 11 10 9 7 9 8 4 2 1 1 2 2 2 2 3 4 4 3 3 4 3 4 2 1 2 2 3 4 3 2 5 1 6 3 3 3 1 3 3 4 5 5 4 3 4 5 7 7 6 7 8 8 7 4 1 2 4 7 9 4 8 8 11 3 1 4 14 17 6 1 5 11 7 10 11 9 5 2 2 1 4 4
12 11 12 12 11 11 10 10 11 12 11 6 4 3 4 3 4 3 1 2 3 2 5 5 5 2 3 1 2 0 0 1 0 3 4 1 1 1 2 1 3 2 1 1 2 2 4 3 4 3 4 6 8 9 9 11 11 9 8 9 8 10 10 10 3 5 8 2 4 8 13 16 6 1 2 1 3 4 9 4 2 2 2 5 6 5 4
14 13 12 11 11 12 12 12 12 13 12 7 6 4 3 2 4 3 3 3 3 2 2 4 1 2 2 0 0 3 4 1 1 2 2 4 5 2 2 2 3 3 3 1 1 2 2 6 5 5 7 3 4 7 10 11 14 13 11 12 10 9 11 4 2 3 3 1 4 6 9 1 5 6 2 2 3 1 5 2 4 1 1 1 3 4 3
15 16 15 14 13 12 11 12 13 14 14 11 7 5 5 4 4 3 2 2 4 3 5 5 3 2 3 5 5 3 1 4 4 2 4 3 5 3 3 2 3 0 1 2 1 1 1 3 3 3 5 3 4 3 7 9 12 14 12 10 11 12 4 3 5 4 7 5 8 13 8 16 14 11 2 3 1 1 2 3 2 8 3 2 3 3 5
16 16 17 17 16 16 16 13 10 11 14 16 7 4 6 5 6 5 2 3 2 1 5 4 2 6 5 4 3 2 2 2 1 4 2 1 1 5 5 1 1 0 0 1 0 2 3 2 2 3 5 1 5 5 5 1 3 0 4 3 9 9 11 6 5 5 7 4 7 6 5 8 4 2 5 3 2 1 2 5 5 5 5 3 4 4 6
16 17 17 17 17 17 18 16 15 13 11 13 7 5 7 7 5 4 4 4 3 5 7 10 6 5 4 3 4 6 4 3 3 1 2 2 4 3 1 1 2 1 2 2 1 4 0 2 5 2 5 3 3 2 4 2 4 2 5 1 5 3 6 5 8 4 5 6 8 8 8 6 4 5 3 3 2 1 1 4 5 3 3 5 7 8 7
17 17 17 17 17 17 18 19 18 18 17 13 7 6 6 8 6 6 5 2 5 9 1 4 5 4 2 0 2 1 3 3 3 1 2 3 2 0 5 3 2 1 3 4 0 3 1 3 1 1 4 2 1 4 1 1 0 5 2 5 8 5 5 6 7 8 7 7 8 10 3 2 2 5 3 4 2 1 2 8 6 3 6 6 7 9 8
18 18 18 18 18 18 18 18 18 19 19 19 9 7 5 7 8 6 4 5 7 8 8 7 6 5 7 6 4 2 4 1 2 0 1 1 2 1 3 1 0 3 4 3 1 4 2 2 4 4 5 5 3 1 4 4 1 4 0 1 0 0 2 1 10 10 12 16 11 7 5 3 2 6 6 3 2 2 2 12 4 5 9 6 6 9 9
20 20 20 19 19 19 19 18 18 18 18 20 7 4 5 9 10 8 4 4 6 9 6 12 10 8 3 3 4 4 4 6 5 3 2 3 4 4 5 2 2 0 2 5 3 3 5 4 1 2 3 4 3 5 1 1 4 1 2 2 1 2 2 5 0 5 9 7 8 9 5 5 5 5 6 3 4 2 9 2 4 2 5 3 8 7 9
19 20 20 20 20 19 19 19 19 18 18 21 11 7 3 10 11 14 11 9 6 10 9 7 8 13 5 9 7 3 1 2 5 6 5 5 3 2 1 1 4 5 2 2 1 2 4 5 5 1 1 5 5 4 2 5 1 4 2 4 3 4 3 4 5 3 1 1 5 6 8 2 5 4 2 1 4 7 4 2 5 3 5 5 4 7 8
21 19 20 20 21 21 20 19 19 19 19 19 15 5 6 8 11 10 10 9 6 8 11 6 4 13 11 13 16 14 11 12 9 7 8 6 5 6 2 5 7 4 5 5 8 6 6 4 2 4 4 4 5 3 5 1 4 7 5 5 3 2 1 4 5 5 6 4 6 5 5 4 4 3 2 2 7 3 6 6 10 8 4 4 4 6 7
23 22 21 20 20 21 20 20 20 18 19 20 15 6 8 6 8 10 11 6 7 9 1 2 4 9 13 15 14 12 13 14 14 10 6 5 4 9 5 5 6 4 3 4 4 1 2 2 3 1 3 3 1 5 3 1 6 3 3 2 4 5 9 8 9 1 4 6 6 5 2 2 4 5 6 8 10 10 7 5 6 7 7 3 4 7 7
23 23 22 22 21 21 20 20 20 20 20 19 13 6 9 5 7 6 6 9 5 3 1 3 1 2 4 7 5 6 11 13 10 5 8 9 6 4 6 6 6 3 2 4 7 5 5 7 7 5 1 3 8 3 1 7 4 1 3 4 7 3 5 1 1 6 4 6 13 11 1 5 11 8 8 9 11 10 5 3 5 6 8 5 6 6 7
23 23 23 22 22 21 20 20 21 20 19 20 15 7 7 6 6 7 3 4 4 6 5 4 3 7 13 17 13 8 8 7 9 12 10 9 9 7 1 4 2 1 2 6 7 5 4 4 4 4 7 4 5 4 7 6 8 3 1 7 3 7 3 2 6 8 6 9 10 6 10 9 7 9 11 9 7 8 4 4 7 8 7 6 5 7 7
23 23 22 23 22 23 21 20 20 21 20 19 16 8 5 3 5 9 7 5 5 7 7 3 13 19 17 9 5 8 13 11 9 12 10 11 12 9 12 10 11 12 11 8 3 4 2 5 2 2 9 6 8 8 5 6 7 9 8 8 2 7 5 7 11 11 9 16 17 11 6 9 11 10 11 13 13 10 6 7 6 6 4 4 5 3 4
21 22 24 24 23 23 22 21 21 20 21 23 16 7 7 7 8 9 7 4 1 2 6 7 8 2 1 5 9 11 8 12 12 12 12 12 13 15 12 2 2 3 2 4 4 7 5 2 4 4 6 6 9 7 7 10 7 5 9 12 11 4 6 4 4 7 13 13 13 15 12 10 14 15 11 10 11 11 11 8 3 2 3 4 3 1 1
25 24 25 24 23 23 22 22 22 21 20 20 12 5 7 5 10 12 9 7 3 6 7 11 5 1 0 8 2 3 4 10 11 13 12 13 14 13 12 8 5 4 7 4 1 4 0 4 5 10 9 7 4 4 3 4 7 7 9 13 3 3 12 6 2 10 12 11 13 6 3 8 9 8 8 6 6 6 7 4 3 3 3 4 6 5 1
23 22 24 25 23 24 21 23 22 22 22 21 13 8 5 6 9 11 10 9 12 9 1 1 1 2 2 3 4 5 7 11 13 13 13 14 14 13 9 10 10 7 6 7 3 4 5 7 11 5 2 0 2 8 8 5 2 4 9 14 8 11 12 6 9 11 13 15 14 8 7 9 11 12 7 3 2 2 1 2 2 1 2 2 3 7 7
24 23 25 25 23 25 25 23 22 22 23 18 1 4 3 7 6 9 11 10 7 6 6 7 1 2 6 4 1 6 6 9 11 13 13 13 14 14 13 13 13 12 9 9 8 8 9 11 6 5 5 4 3 5 4 6 8 10 14 17 15 12 9 11 14 13 14 16 16 12 7 10 12 9 2 4 2 2 1 2 1 1 1 1 2 2 4
25 26 25 24 25 25 25 23 24 24 19 3 5 2 3 4 8 9 11 10 8 3 4 4 6 4 2 1 3 4 5 7 9 11 13 12 10 10 11 12 12 11 10 7 7 6 8 6 6 7 5 8 5 2 5 6 8 13 16 17 13 10 10 12 12 13 15 15 11 11 10 9 2 2 6 5 3 2 3 1 0 1 1 2 2 2 2
26 27 26 24 26 26 24 21 23 23 17 5 4 4 5 7 6 11 16 12 11 7 2 2 6 1 3 2 3 8 10 8 10 11 14 13 13 14 12 9 8 4 5 5 5 10 5 5 6 7 6 11 9 5 6 6 9 9 17 12 11 12 12 14 13 12 14 15 12 5 3 2 2 3 2 4 3 3 1 1 1 2 2 2 2 3 4
25 25 25 26 26 26 25 25 25 21 7 10 11 8 3 4 4 13 20 13 10 6 5 4 4 2 3 2 2 1 5 9 7 4 2 4 7 7 6 9 8 10 10 9 8 5 6 6 7 8 9 11 11 2 4 8 9 14 11 8 10 11 11 10 10 9 0 2 1 8 10 7 5 3 5 3 2 2 2 2 2 3 3 2 3 4 5
24 25 25 24 24 25 25 25 25 17 9 12 10 3 3 5 11 14 12 11 7 3 2 4 5 1 1 4 1 1 3 3 1 4 4 5 5 5 5 5 5 6 9 8 6 4 3 7 8 11 10 4 4 3 6 11 15 16 14 12 11 11 11 4 1 3 3 2 1 10 13 6 4 1 1 1 2 2 3 4 4 4 3 4 3 3 2
23 23 25 23 22 24 24 25 24 25 15 7 5 9 6 10 14 19 13 9 3 2 2 3 2 4 4 1 1 3 5 6 5 8 5 2 2 5 4 5 7 4 7 10 4 3 2 3 9 6 3 7 7 2 7 13 13 14 14 14 13 9 2 3 2 3 1 2 3 3 2 3 2 1 0 2 2 2 3 4 5 6 5 4 5 4 6
24 23 22 22 22 21 21 20 11 9 9 7 6 2 10 20 18 23 18 8 5 4 4 3 2 3 2 0 4 4 2 5 4 7 8 3 4 6 2 3 4 7 5 6 4 8 8 8 4 4 9 3 4 7 8 10 12 13 13 13 9 3 3 1 4 4 2 2 1 1 3 2 3 2 2 1 1 2 5 4 5 6 8 7 6 7 5
20 22 23 21 20 15 7 7 6 5 5 7 6 11 25 22 21 13 10 5 4 4 4 3 5 8 7 8 6 2 4 2 1 3 1 2 1 0 2 4 6 7 2 5 7 7 8 5 5 7 5 7 11 10 10 12 15 15 13 14 4 6 3 4 3 4 1 0 1 2 3 2 2 1 2 0 1 2 4 4 5 4 5 8 7 7 7
18 18 18 16 7 2 7 7 3 7 5 4 7 17 24 15 2 5 4 2 2 2 4 3 3 5 8 4 1 2 4 3 2 3 1 2 4 0 3 3 8 2 3 4 5 9 8 7 6 9 9 12 14 13 12 11 12 14 13 1 5 4 5 5 4 3 2 3 4 2 1 0 0 1 0 0 1 1 3 4 4 5 7 10 9 9 7
20 18 6 2 3 5 4 5 4 6 15 21 18 7 2 6 3 4 3 4 2 5 4 3 8 1 3 3 4 3 5 3 3 5 2 2 2 2 2 3 5 5 7 5 8 5 2 2 5 8 12 13 5 1 6 5 1 3 4 5 4 6 5 4 3 5 2 0 3 3 2 1 1 1 1 3 3 3 4 3 4 3 5 6 7 8 10
14 6 5 5 5 5 5 2 8 20 12 5 4 3 2 1 4 3 4 2 3 3 3 7 9 7 6 4 2 1 4 5 3 2 5 4 5 5 3 6 5 4 4 2 5 9 3 5 5 8 11 8 6 9 3 5 5 4 5 5 5 5 5 4 3 3 3 4 2 1 2 2 3 4 1 4 3 3 3 4 4 4 5 7 7 7 8
4 5 4 3 6 3 1 9 23 14 5 4 1 3 3 2 5 4 2 3 1 1 3 6 4 7 10 12 8 7 4 5 7 7 6 2 1 4 1 2 2 3 5 6 3 5 5 4 3 2 11 6 11 1 5 5 6 4 4 4 4 6 5 4 2 2 3 2 2 1 1 1 0 2 3 4 5 8 6 5 5 6 6 7 7 7 8
2 2 2 5 2 3 4 7 3 3 3 3 2 0 2 1 2 1 3 4 3 3 1 3 3 4 5 7 7 10 2 3 1 3 3 5 1 6 2 2 1 2 2 3 1 4 2 1 1 5 7 6 9 4 5 5 4 3 3 3 3 3 4 2 3 0 2 0 1 0 0 1 2 3 3 4 5 7 7 7 7 6 6 6 8 8 8
5 5 4 4 2 3 6 3 2 2 0 1 3 5 4 2 2 1 1 6 6 2 2 3 4 8 7 11 9 6 2 1 2 1 2 4 3 5 2 1 1 4 3 2 3 1 2 3 2 5 7 8 1 3 5 6 4 4 3 2 3 3 3 1 1 1 1 1 1 1 2 2 3 3 4 5 6 6 7 7 9 7 8 7 6 8 8
14 7 4 4 2 1 1 3 3 3 5 3 2 2 2 4 3 5 2 1 2 2 3 2 1 2 2 3 2 0 2 2 2 1 2 3 1 2 2 0 1 1 3 2 2 2 1 3 5 8 7 4 4 4 4 3 3 3 3 2 2 3 2 1 1 1 2 1 3 2 3 3 5 5 5 5 6 9 8 7 8 8 7 8 8 7 8
5 3 3 1 2 3 3 6 2 3 2 2 5 8 5 4 4 3 3 5 3 2 6 9 8 10 6 1 5 2 1 1 3 2 1 1 2 2 2 3 4 2 3 0 2 3 5 4 8 7 2 2 3 3 4 3 3 3 2 2 2 1 0 0 0 0 1 1 1 2 2 4 6 6 5 5 5 9 9 8 7 7 7 7 8 8 8
5 0 2 2 2 2 4 3 2 3 7 6 4 4 5 10 9 9 11 4 6 9 6 5 8 7 6 2 3 1 2 3 0 4 3 3 1 1 3 4 1 1 3 3 1 2 2 5 7 7 4 5 6 4 4 4 4 3 3 1 0 0 0 1 2 2 2 2 3 3 4 5 4 6 5 6 6 5 7 9 8 7 7 7 8 8 9
4 6 4 3 4 3 3 2 2 3 2 3 5 6 9 10 9 10 4 4 6 5 11 10 8 7 5 1 6 4 2 3 2 2 2 1 3 4 2 1 1 2 1 0 2 6 8 8 12 7 4 8 8 6 5 4 3 3 3 1 1 1 2 2 3 2 3 3 3 3 5 4 5 6 8 6 5 6 6 7 7 7 7 7 9 9 9
2 1 2 1 2 2 2 4 5 4 2 3 5 7 8 7 3 3 2 2 6 5 6 4 5 4 8 3 2 2 1 0 2 2 4 1 3 1 2 3 2 3 4 3 5 5 6 12 3 3 5 7 8 5 5 4 3 3 2 1 1 2 2 2 3 3 4 3 4 5 5 5 6 6 7 8 6 5 7 6 8 7 7 9 9 8 9
4 1 3 3 3 3 6 5 2 3 3 1 2 2 0 2 7 3 3 1 4 8 10 8 6 2 3 1 4 4 3 1 2 3 3 2 2 2 1 0 2 1 3 4 7 9 8 0 3 5 5 4 6 6 4 3 1 2 1 1 1 2 2 3 4 5 4 4 5 5 5 6 6 6 7 8 7 8 6 7 7 6 7 8 8 8 9
2 2 3 3 2 3 1 1 5 5 1 4 2 1 3 7 6 6 5 2 6 8 5 7 5 6 2 2 4 3 2 2 3 3 2 1 3 3 3 3 3 3 5 8 9 4 2 3 3 6 4 5 4 4 3 2 1 1 0 1 2 3 3 4 5 5 4 5 6 6 6 6 6 6 7 7 7 8 6 6 7 7 7 8 9 9 9
3 1 3 3 3 3 1 1 4 2 1 2 1 1 2 3 5 1 2 4 3 7 3 5 3 3 2 3 1 2 2 2 3 1 3 4 4 2 2 3 4 6 5 4 3 3 3 4 5 5 4 4 3 3 2 1 1 0 1 2 3 3 3 4 5 5 6 6 6 7 6 6 6 6 7 8 7 6 7 8 9 9 10 9 8 9 9
2 2 1 1 1 2 5 5 8 6 3 5 4 2 1 0 1 4 1 3 6 6 4 4 3 4 2 2 2 1 3 2 2 5 5 5 2 3 5 6 8 8 5 1 1 3 6 5 5 6 4 3 2 2 3 2 1 2 1 3 4 3 4 4 5 6 7 6 5 6 6 7 7 7 7 5 6 6 8 10 10 9 9 9 7 9 9
1 2 2 0 1 1 0 0 3 2 2 2 5 3 4 2 2 2 1 1 2 6 6 1 4 3 2 5 4 2 1 2 1 1 0 4 3 5 7 8 4 4 6 7 5 4 4 3 3 5 5 4 3 3 2 1 0 2 2 3 4 4 5 5 6 5 6 6 6 6 7 7 7 6 5 5 6 5 6 8 8 6 6 6 6 8 7
Wind_Direction
334 336 14 9 337 348 1 356 358 31 19 48 321 294 110 117 188 284 302 207 167 159 214 202 211 218 257 12 298 189 293 198 222 83 178 343 168 9 231 213 231 254 230 233 245 203 251 194 240 208 241 237 237 319 352 23 10 48 297 357 267 92 78 310 262 264 314 293 288 192 130 231 315 272 218 121 243 229 243 252 260 258 241 244 246 245 294
275 315 308 326 325 331 19 10 14 28 54 81 306 60 86 45 329 326 323 339 198 182 195 209 208 227 261 236 253 209 199 251 297 193 236 166 172 182 211 336 219 258 236 227 253 213 270 226 245 258 246 260 148 354 2 313 160 155 258 182 274 2 272 184 306 299 295 295 321 321 4 67 171 205 244 221 284 315 272 309 83 265 206 257 263 259 299
234 250 279 281 321 339 25 33 13 16 34 56 96 110 89 81 321 278 301 3 286 208 211 213 217 221 233 228 243 249 238 219 241 247 254 208 204 355 275 224 175 228 136 198 229 192 202 288 293 200 255 249 25 1 23 357 68 349 33 109 282 263 206 281 278 279 276 276 267 269 288 270 247 289 299 314 201 257 328 284 266 262 180 221 240 266 227
240 236 244 266 271 18 353 20 2 25 64 54 70 197 61 184 118 294 356 1 42 287 187 142 211 195 242 256 245 253 258 272 92 169 256 207 199 225 240 161 143 228 274 242 248 259 182 191 256 3 263 280 3 191 312 69 169 180 65 29 40 245 320 215 239 250 259 265 276 321 337 271 268 265 312 287 276 234 240 271 259 253 275 264 262 274 282
243 248 244 252 271 137 102 340 3 20 76 93 112 358 120 249 109 165 240 353 320 245 37 343 283 206 213 215 196 234 236 252 290 176 246 263 183 246 201 200 197 256 214 229 260 236 260 223 247 244 256 255 241 322 133 47 20 304 104 352 84 201 241 221 251 254 265 276 277 283 280 279 278 276 273 274 265 260 254 241 256 282 293 259 238 256 266
251 250 245 233 240 202 174 183 23 110 141 77 74 62 318 80 256 94 245 147 234 194 249 179 246 271 330 262 281 256 269 212 235 353 190 117 79 184 325 228 216 224 227 256 264 180 240 171 228 83 274 6 317 2 355 63 329 49 358 337 117 176 257 261 272 272 273 275 285 304 311 284 292 284 292 286 288 276 259 258 265 267 253 268 274 278 278
252 248 238 236 247 239 207 216 194 170 102 91 97 87 290 119 313 165 326 139 295 84 357 6 347 286 251 288 292 255 249 257 237 172 327 28 314 185 250 210 227 216 239 215 225 228 292 263 214 205 220 202 172 287 333 177 59 55 44 9 216 205 253 260 264 282 288 297 291 296 293 294 285 279 275 275 272 269 268 273 270 259 260 264 271 267 263
234 250 248 236 239 243 228 184 128 117 94 74 61 75 117 312 70 304 27 77 14 317 16 56 17 281 255 254 231 251 251 260 267 237 218 263 265 122 252 261 272 202 209 187 242 246 283 284 274 248 147 281 174 210 214 228 344 52 8 335 295 168 274 347 51 297 282 283 286 286 283 289 286 292 286 268 261 260 262 266 265 266 263 261 260 262 267
242 242 238 236 232 227 233 217 204 147 101 29 97 284 99 219 71 112 108 30 206 80 4 106 133 273 232 230 253 247 246 257 71 244 25 227 266 47 15 19 4 12 288 234 223 128 149 92 59 4 1 264 333 84 281 95 294 324 344 67 314 327 273 343 334 304 278 272 280 299 309 296 283 276 273 265 259 264 258 253 254 255 262 266 274 266 253
234 237 237 234 229 222 219 225 205 176 119 112 108 80 250 59 298 95 104 201 214 133 111 20 97 232 233 177 246 200 82 80 281 58 106 67 103 100 73 15 49 319 60 2 50 7 38 145 196 275 267 246 277 231 257 298 258 311 192 236 279 222 288 307 290 283 269 273 291 328 331 320 292 260 248 255 262 251 258 264 269 262 293 275 262 273 62
229 231 231 229 228 224 220 217 222 165 124 130 112 206 163 161 151 44 47 121 298 153 139 250 160 234 102 357 79 10 100 47 29 207 221 118 154 101 83 24 22 269 259 216 159 212 248 236 238 204 223 222 239 244 237 240 223 215 221 263 216 227 243 260 234 254 282 286 311 38 332 274 258 265 229 207 249 260 261 261 258 273 155 231 64 138 146
234 234 231 227 224 230 226 217 217 176 152 179 130 163 197 125 84 82 114 153 264 130 179 214 179 278 92 252 99 279 333 349 24 6 243 308 276 27 141 231 192 286 137 171 212 233 241 240 227 272 237 252 249 249 246 243 240 219 211 218 232 244 252 248 174 241 260 283 36 307 255 257 276 334 236 165 219 231 247 263 178 186 133 161 120 125 150
238 232 231 239 248 238 227 220 217 213 170 149 140 180 217 163 119 133 143 133 245 170 143 254 178 141 133 83 350 211 230 253 54 324 278 258 290 290 245 176 205 229 90 181 67 1 350 301 313 278 273 291 282 260 255 247 247 239 220 213 218 233 236 226 251 184 13 148 221 244 252 181 274 258 285 298 103 153 79 283 175 253 228 164 150 172 199
245 245 243 237 236 241 251 238 220 221 177 155 160 183 147 151 127 121 142 145 252 177 212 261 263 266 211 225 226 261 25 298 261 212 251 248 217 241 281 217 210 65 289 78 60 126 350 20 330 349 269 15 330 295 247 249 242 241 239 220 215 225 226 153 258 210 228 226 215 241 327 316 295 290 264 150 191 182 147 227 256 181 237 158 172 205 210
242 241 239 239 237 234 232 231 242 241 202 167 156 138 159 171 146 144 186 111 241 268 162 204 223 209 218 244 208 232 232 259 18 278 228 322 122 223 202 231 19 354 111 86 350 49 172 100 356 271 328 333 271 257 326 326 313 147 275 234 199 202 199 217 200 276 203 213 263 275 258 258 283 237 281 305 229 143 245 97 286 162 227 223 225 220 230
243 241 239 237 235 236 236 233 233 237 229 164 149 162 182 178 144 120 141 149 146 270 238 205 181 132 159 209 182 171 212 187 210 143 329 277 245 314 302 8 301 116 89 83 71 92 62 146 239 124 233 211 242 66 294 18 328 304 22 13 170 211 210 212 216 254 247 235 237 241 256 256 140 207 200 263 210 180 244 77 273 172 199 250 191 235 242
247 244 242 239 235 234 233 233 230 227 229 189 172 177 195 174 157 166 149 175 182 220 93 137 160 142 102 153 86 271 201 187 159 120 285 273 234 267 299 324 319 150 174 82 179 84 46 61 58 178 298 170 74 225 271 33 260 321 338 37 52 133 205 195 228 226 232 257 257 254 239 230 239 202 251 224 180 196 64 317 303 85 280 238 195 219 236
244 243 243 240 237 235 232 232 229 228 227 216 175 183 188 180 184 146 168 181 206 249 208 154 127 162 190 180 180 207 87 62 41 49 127 244 28 274 259 12 280 287 144 100 162 76 155 133 187 220 231 252 178 48 254 156 156 219 220 87 241 84 345 193 212 231 233 237 254 255 286 288 196 201 211 206 198 86 234 251 237 204 206 234 189 219 231
239 243 243 240 240 238 236 233 231 230 228 229 198 168 205 178 180 167 168 189 208 241 177 174 187 192 192 108 173 166 186 165 160 122 274 9 253 209 162 237 141 221 357 151 61 160 164 232 68 125 155 286 55 204 220 72 231 15 135 353 318 299 132 294 12 238 234 236 250 253 270 234 188 242 157 171 76 245 232 235 147 250 276 220 200 220 233
246 242 240 241 242 241 239 238 235 235 231 230 203 201 182 173 183 182 184 205 209 236 227 188 184 199 180 181 189 164 128 63 188 158 165 198 256 83 23 289 320 87 4 92 123 211 114 208 191 147 240 228 254 165 37 240 92 178 230 197 168 208 128 233 211 223 353 207 245 265 262 309 114 187 46 221 137 233 188 278 285 239 260 269 247 212 239
248 248 246 243 241 240 239 239 237 237 233 232 223 188 226 183 188 197 202 204 204 242 252 210 162 205 192 209 207 196 180 198 187 191 211 190 189 107 158 206 211 138 203 157 179 210 167 225 218 191 221 157 247 71 210 165 316 271 187 229 233 230 72 248 258 182 239 211 225 212 219 184 205 107 196 237 198 225 299 312 298 299 275 250 246 242 232
247 246 245 244 243 242 241 240 240 237 236 237 224 158 226 191 181 192 202 198 211 223 214 251 197 210 212 214 215 199 199 211 207 184 171 197 217 195 193 141 187 152 202 122 59 5 334 177 37 74 240 247 21 216 156 30 251 260 357 77 332 205 197 201 233 263 137 207 233 240 254 227 214 177 232 246 270 276 270 256 262 283 286 204 212 254 257
244 243 243 243 243 242 241 241 240 240 237 234 230 165 215 169 177 185 156 202 233 302 310 255 261 287 298 260 242 198 211 217 207 184 181 201 214 227 195 189 229 191 169 175 180 171 175 138 215 163 16 204 192 233 259 194 252 223 215 232 218 266 203 314 356 248 241 247 251 266 249 260 273 255 246 259 272 278 277 212 257 243 246 241 239 252 260
245 244 243 242 240 240 240 240 240 240 237 234 226 161 212 188 155 116 129 207 206 256 255 209 205 234 226 234 221 208 219 214 197 204 203 190 215 220 218 226 141 139 217 211 182 175 193 159 211 142 230 217 104 199 227 246 224 196 178 274 239 243 188 136 224 264 279 265 259 234 249 261 262 262 270 273 261 261 271 226 226 253 262 261 245 242 257
249 245 242 242 243 241 238 238 241 240 238 237 236 211 143 116 153 156 151 178 194 192 228 200 218 230 234 227 204 204 215 205 199 207 201 197 205 202 223 202 180 192 214 202 133 80 67 188 243 168 229 227 136 239 189 220 261 157 225 237 270 285 167 205 239 251 226 254 260 262 236 235 255 261 269 274 281 285 260 242 245 247 258 258 277 311 282
249 247 243 241 239 240 239 236 236 238 240 238 229 168 195 195 166 175 179 218 201 151 230 240 257 289 201 164 206 216 184 192 201 211 207 201 205 214 229 81 253 200 152 123 144 197 191 178 213 217 222 262 158 216 224 195 231 183 198 234 215 211 86 219 178 222 247 258 266 264 269 267 263 262 258 258 266 274 276 277 308 346 329 325 327 78 310
244 243 244 242 241 240 237 239 238 236 238 240 236 186 190 175 165 174 179 170 167 280 212 238 232 307 295 212 218 88 141 182 199 208 210 210 216 221 222 207 175 162 185 190 176 181 93 212 187 229 210 234 193 221 206 244 208 225 236 247 200 160 241 220 113 257 261 254 259 251 277 277 267 256 252 256 254 251 271 322 15 37 22 8 337 327 26
245 248 249 245 242 243 239 236 237 238 237 237 230 199 168 182 190 187 187 180 187 228 296 305 291 256 68 289 244 196 190 188 193 202 210 215 216 222 219 216 216 205 201 187 196 173 194 196 226 219 218 237 198 244 222 250 260 251 239 247 206 214 232 207 218 234 255 258 257 247 233 257 263 270 288 73 21 54 336 319 13 60 86 22 4 331 326
244 239 239 239 237 239 237 235 234 235 237 236 158 120 156 208 199 193 192 191 199 234 248 264 49 92 246 249 117 195 212 183 194 199 208 212 211 215 213 212 214 218 211 207 217 211 208 223 204 193 200 185 139 235 183 218 221 230 235 239 234 228 230 232 240 248 261 268 272 273 255 259 270 280 27 100 22 107 115 123 77 83 9 8 18 326 310
251 245 240 241 245 241 240 235 235 232 228 148 89 111 224 248 194 192 190 189 187 169 224 217 231 247 9 71 240 206 190 190 199 201 208 212 213 211 214 216 225 218 217 210 204 221 212 229 221 222 211 149 184 208 199 217 231 240 244 245 246 249 235 237 238 235 247 258 270 271 269 272 297 97 105 100 79 58 133 125 81 359 352 13 337 303 293
248 246 243 237 236 237 237 238 237 233 219 131 151 146 180 239 202 178 184 187 180 175 212 189 239 43 315 242 165 194 187 184 194 205 212 209 208 207 214 207 227 185 207 217 222 234 217 220 210 219 195 190 202 200 214 216 240 246 244 231 231 235 235 238 240 239 246 254 265 295 337 284 103 99 105 78 24 76 78 111 25 27 346 346 307 303 293
245 245 244 241 236 233 231 228 230 229 201 156 195 195 186 205 189 175 184 174 147 160 174 224 256 216 238 252 214 267 191 194 189 176 201 169 220 208 216 188 210 191 206 218 217 231 215 224 228 230 221 208 209 232 201 224 233 242 250 238 233 238 240 244 243 242 16 19 359 292 281 265 77 208 238 37 351 33 70 35 21 12 351 308 302 278 270
250 248 244 242 244 244 240 236 230 224 189 204 215 330 327 176 139 151 156 133 146 183 166 191 209 208 228 243 337 289 156 88 116 132 240 156 209 160 226 185 207 209 212 231 200 238 183 211 222 237 229 132 199 212 226 228 237 246 253 257 254 248 246 236 241 69 84 356 132 219 253 248 184 202 178 262 51 34 18 17 6 343 330 334 324 323 316
244 242 244 241 236 237 241 241 239 234 215 146 214 211 197 150 146 143 139 136 143 146 142 175 195 209 234 0 49 267 151 160 186 173 237 180 165 161 205 155 185 210 186 207 189 216 223 191 217 230 112 203 205 197 235 240 240 250 253 251 252 255 172 138 160 141 75 75 30 45 71 115 109 89 77 66 12 41 46 22 358 347 340 338 331 333 319
250 244 240 237 237 241 242 246 240 223 212 201 226 189 164 164 158 159 153 150 125 195 177 229 161 206 232 313 199 258 150 94 169 189 200 209 152 175 149 158 178 201 217 159 231 215 221 215 156 151 219 157 182 226 233 247 245 246 250 254 248 108 73 275 246 176 137 128 70 89 102 81 112 140 138 107 20 28 17 358 354 350 333 328 322 316 326
248 246 244 241 238 236 238 241 214 189 199 208 214 167 172 173 162 169 180 172 144 171 178 207 169 213 197 233 237 244 114 221 158 83 156 124 354 206 159 181 231 211 118 171 223 202 218 154 103 231 182 196 224 219 232 234 247 254 253 252 232 172 194 221 121 133 172 58 201 145 101 71 114 149 119 105 42 41 17 346 338 343 309 301 308 315 319
236 238 244 252 235 164 209 215 164 198 222 170 148 160 168 154 67 129 177 238 316 94 172 152 177 208 179 211 52 257 119 216 140 93 104 150 194 259 166 194 220 164 165 214 209 217 225 135 202 228 218 227 236 231 234 239 240 245 257 265 100 102 106 103 119 122 88 81 119 141 86 96 141 150 113 342 3 344 357 345 340 333 317 308 310 315 312
244 238 212 154 136 212 225 201 188 174 124 127 121 96 124 147 172 164 172 199 199 132 219 143 227 156 43 135 235 180 136 230 109 169 244 226 138 261 206 212 214 190 226 204 226 153 73 155 209 216 239 238 253 197 219 207 168 72 85 98 95 104 105 116 155 128 111 281 254 217 244 227 216 210 302 300 328 328 313 299 299 279 278 288 293 304 312
249 229 191 189 164 210 204 224 167 146 125 110 59 122 181 185 133 183 193 152 162 196 179 175 208 164 165 175 235 151 173 168 169 189 196 192 155 255 153 197 203 181 254 155 253 129 221 213 211 222 245 227 237 242 143 104 79 73 84 89 105 102 106 97 86 142 173 195 178 160 148 220 266 276 289 297 289 278 293 296 292 289 289 291 296 297 294
122 204 202 143 212 202 73 155 146 129 124 146 222 134 181 188 171 209 130 134 178 232 149 220 184 186 191 207 193 220 151 139 174 209 199 261 156 172 218 82 253 118 225 200 228 100 174 224 244 207 241 208 236 186 102 129 114 93 80 87 91 96 100 103 91 79 101 60 81 84 51 16 262 268 286 291 296 294 294 284 275 281 281 278 281 289 293
199 95 151 206 173 137 150 126 35 44 110 125 112 278 132 205 216 181 131 188 163 225 171 172 115 171 192 199 200 223 171 143 16 84 145 203 174 86 96 193 207 164 231 185 204 93 91 79 273 199 230 215 222 138 135 100 117 109 108 99 102 108 103 99 96 74 96 117 63 306 264 250 235 253 251 256 260 267 272 275 278 273 279 285 289 288 294
199 182 170 121 105 106 107 124 139 103 354 194 147 192 169 191 89 27 194 156 199 166 263 160 188 180 207 188 202 179 242 109 135 145 138 235 195 162 218 280 336 178 220 201 101 49 101 222 217 251 246 230 135 149 138 129 125 136 126 120 107 117 95 98 106 325 145 197 225 259 253 255 262 261 256 262 262 266 276 282 283 283 282 283 289 292 290
89 83 91 100 117 159 117 157 193 149 171 171 131 196 165 141 194 148 210 258 304 107 242 43 230 85 340 62 22 77 169 137 131 173 125 201 75 67 136 192 118 273 215 29 70 67 154 223 229 240 235 224 157 160 145 135 132 123 114 110 110 88 93 115 189 250 271 222 245 246 260 264 261 256 257 254 268 274 268 266 274 284 290 291 285 283 282
133 117 73 66 112 237 136 213 150 81 212 184 168 185 147 154 210 118 137 204 180 206 193 155 193 151 194 172 145 138 47 126 138 81 271 251 98 189 154 205 200 240 59 41 110 177 217 236 214 234 231 121 147 154 147 144 135 126 102 91 71 8 71 13 280 351 273 256 268 285 299 282 277 275 271 258 251 266 277 277 278 281 281 283 282 282 280
130 144 108 97 194 200 106 239 100 159 199 190 178 187 168 188 181 177 188 196 145 191 167 135 135 165 157 214 43 300 137 199 81 129 212 138 190 200 142 232 175 60 162 203 207 300 358 263 257 247 197 169 171 174 148 140 146 137 148 112 14 97 14 300 279 276 282 288 286 285 278 267 268 266 258 259 257 253 270 281 282 286 283 283 283 285 283
166 169 150 158 202 200 163 217 133 209 266 178 202 185 178 192 169 197 210 115 140 145 154 174 159 132 128 241 143 189 117 120 112 203 143 105 145 225 204 36 92 128 19 98 165 208 221 234 241 244 149 162 154 158 145 139 120 121 109 130 197 203 253 255 266 280 289 303 289 272 271 271 272 285 282 273 270 269 265 269 277 278 286 287 282 279 283
134 105 112 129 161 228 111 188 211 202 179 208 193 182 188 173 170 126 111 110 142 164 101 85 123 161 148 190 88 354 44 66 145 217 91 139 195 223 80 126 208 183 179 214 219 241 250 242 240 99 145 135 138 143 140 143 136 141 161 175 225 259 281 292 298 287 276 274 276 279 280 282 281 278 281 284 273 267 271 277 280 277 274 271 275 279 281
175 158 112 164 207 156 185 219 112 69 28 92 301 340 293 131 120 186 231 180 146 134 134 128 114 74 56 307 75 169 160 188 82 276 157 204 51 53 183 179 237 238 190 177 220 224 237 289 182 156 135 145 139 145 154 151 158 163 179 205 248 281 281 270 273 270 272 271 275 277 277 276 273 272 273 279 286 286 285 281 278 277 274 273 274 272 272
83 128 177 194 187 142 170 82 133 143 333 335 306 332 129 140 189 157 147 163 149 154 161 126 163 106 174 139 135 155 221 192 161 215 92 176 163 204 171 221 177 250 252 197 228 238 234 181 134 125 132 123 146 135 153 160 152 172 191 234 259 255 269 269 268 275 286 282 271 270 272 273 278 283 283 289 289 289 285 280 277 276 272 269 270 270 271
91 46 50 71 34 345 238 108 107 175 310 3 11 220 283 216 148 147 209 118 154 126 146 84 95 95 167 121 172 166 205 185 179 130 117 206 202 214 97 223 223 194 236 224 219 207 150 131 131 129 147 141 136 159 145 212 164 210 248 248 268 270 273 279 290 285 277 272 272 271 273 279 279 278 280 281 281 287 292 289 283 276 274 266 256 255 257
8 82 117 337 146 198 139 154 171 189 219 223 193 199 111 143 110 168 193 154 154 114 91 147 168 118 134 98 128 142 234 133 123 191 170 200 159 153 193 214 225 209 219 219 223 151 153 163 142 153 153 171 179 158 173 160 172 217 268 277 287 292 283 269 261 268 273 273 277 284 284 278 271 273 277 287 289 291 293 287 276 262 258 262 254 247 250
82 101 179 151 111 357 156 151 33 73 126 140 136 208 148 186 183 200 299 121 118 139 181 166 97 120 116 185 203 175 39 46 223 54 312 262 157 167 212 203 226 215 173 155 166 157 135 176 162 154 169 166 184 202 182 145 46 304 282 273 263 261 272 276 278 279 282 290 286 279 278 275 277 278 279 280 281 288 277 275 277 269 256 248 246 245 251